This is the latest recevied weather packets stored in our database for station/object N7ZAP. If no packets are shown the sender has not sent any weather packets the latest 10 day(s).
| Time | Temp. | Humidity | Pressure | Rain* | Wind** | Luminosity | Snow |
|---|---|---|---|---|---|---|---|
| 1788144029 | 26.11° C | 38% | 1018.7 hPa | 0 mm | - | - | - |
| 1788143728 | 26.67° C | 38% | 1018.5 hPa | 0 mm | - | - | - |
| 1788143428 | 26.67° C | 38% | 1018.5 hPa | 0 mm | - | - | - |
| 1788143127 | 26.67° C | 38% | 1018.7 hPa | 0 mm | - | - | - |
| 1788142822 | 26.67° C | 37% | 1018.5 hPa | 0 mm | - | - | - |
| 1788142521 | 26.67° C | 37% | 1018.5 hPa | 0 mm | - | - | - |
| 1788142217 | 26.67° C | 38% | 1018.5 hPa | 0 mm | - | - | - |
| 1788141913 | 26.67° C | 39% | 1018.4 hPa | 0 mm | - | - | - |
| 1788141607 | 26.67° C | 39% | 1018.4 hPa | 0 mm | - | - | - |
| 1788141303 | 27.22° C | 38% | 1018.5 hPa | 0 mm | - | - | - |
| 1788140997 | 27.22° C | 38% | 1018.7 hPa | 0 mm | - | - | - |
| 1788140692 | 27.78° C | 37% | 1018.5 hPa | 0 mm | - | - | - |
| 1788140388 | 27.78° C | 36% | 1018.2 hPa | 0 mm | - | - | - |
| 1788140084 | 27.78° C | 35% | 1018.1 hPa | 0 mm | - | - | - |
| 1788139783 | 27.78° C | 35% | 1018.1 hPa | 0 mm | - | - | - |
| 1788139479 | 27.78° C | 35% | 1018.2 hPa | 0 mm | - | - | - |
| 1788139178 | 27.78° C | 36% | 1018.1 hPa | 0 mm | - | - | - |
| 1788138874 | 27.78° C | 35% | 1018.1 hPa | 0 mm | - | - | - |
| 1788138570 | 27.78° C | 35% | 1018.2 hPa | 0 mm | - | - | - |
| 1788138270 | 28.89° C | 35% | 1018.3 hPa | 0 mm | - | - | - |
| 1788137965 | 28.89° C | 31% | 1018.1 hPa | 0 mm | - | - | - |
| 1788137661 | 28.33° C | 31% | 1018 hPa | 0 mm | - | - | - |
| 1788137355 | 28.33° C | 32% | 1018.2 hPa | 0 mm | - | - | - |
| 1788137052 | 28.33° C | 31% | 1018.3 hPa | 0 mm | - | - | - |
| 1788136752 | 29.44° C | 32% | 1018.7 hPa | 0 mm | - | - | - |
* Rain latest hour (hover to see other rain measurements)
** Current wind speed in m/s (hover to see current wind gust speed)